ATLAS 5 CENTAUR DEB, 50214

Orbit data source: Space-Track

ATLAS 5 CENTAUR DEB, 50214 is space debris in GEO originally from a launch on Tue, 07 Dec 2021 UTC launched from the Air Force Eastern Test Range (AFETR). Debris objects in space refer to the collection of defunct objects orbiting the Earth. Examples of debris include non-operational satellites, rocket bodies, and fragments generated from explosions, collisions, or faulty payload assembly.

Loading next visibility...
Identifier
50214, 2021-118D
Orbit
GEO
Country
Flag of USUS
Related business
Manufacturer
NGIS/HARRL3?
Mission
Defense Technology
Bus & Motor
ESPASAT, Unknown motor
Mass
~100 kg wet, 80 kg dry
Launch date (UTC)
2021-12-07 (4 years ago)
Launch vehicle
Unknown
Launch site
Air Force Eastern Test Range (AFETR)
Object type
Payload
Rocket body
Debris
Shape & HBR
Unknown
Radar Cross Section
0.600 m², Large (>1 m²)

Expand to show TLE details & history
Last TLE update: 2 days ago

TLE from 2 days ago
0 ATLAS 5 CENTAUR DEB
1 50214U 21118D   25259.46646422 -.00000113  00000-0  00000-0 0  9998
2 50214   3.6010  80.9120 0012559  52.1643 308.2868  0.99326726 13707
Epoch: 2025-09-16T11:11Z
TLE epoch observation values (Epoch: 2025-09-16T11:11:42.508Z)
Latitude
0.00001°
Longitude
-82.33943°
Altitude
36,020.281 km
Speed
3.067 km/s
True Right ascension
05h 24m 58s
True Declination
0° 00' 00"
Sunlit
Object was in daylight at epoch
Visualization orbit readout
Latitude
Unknown
Longitude
Unknown
Altitude
Unknown
Speed
Unknown
Apparent Right ascension
Unknown
Apparent Declination
Unknown
Sunlit
N/A
Visualization observer readout
Local Sidereal Time
18:31:55
Azimuth
Unknown
Elevation
Unknown
Doppler factor
Unknown
Orbital elements
Apogee altitude
36,107.977 km
Perigee altitude
36,001.394 km
Semi-major axis
42,432.823 km
Eccentricity
0.00126
Inclination
3.601°
RAAN
80.912°
Arg. of periapsis
52.1643°
True anomaly
308.17373°
Mean anomaly
308.2868°
Eccentric anomaly
308.23028°
Mean motion
0.24831 °/min
Orbital period
1,449.81 mins
BSTAR
0
Loading maneuver chart data...
Computing Atmospheric mass density...
Loading historical data...
Loading historical data...
Loading historical data...
Loading historical data...
Loading historical data...
Loading historical data...
Loading historical data...
Other satellites on launch #118 in the year 2021 (2021-12-07 UTC)

Documentation

Showing up to 5 results
|